Ozark, AL

4:46 AM CDT on September 21, 2017 (GMT -0500)
Cairns Army Air Field

Weather History for KOZR - August, 2013

Change the Weather History Date:

Friday, August 9, 2013

  Actual Average Record
Temperature  
Mean Temperature 83 °F -  
Max Temperature 93 °F 86 °F 102 °F (2007)
Min Temperature 73 °F 68 °F 62 °F (2002)
Cooling Degree Days 18    
Growing Degree Days 33 (Base 50)    
Moisture  
Dew Point 75 °F    
Average Humidity 89    
Maximum Humidity 100    
Minimum Humidity 53    
Precipitation  
Precipitation 0.00 in - - ()
Sea Level Pressure  
Sea Level Pressure 30.05 in    
Wind  
Wind Speed 4 mph (East)    
Max Wind Speed 8 mph    
Max Gust Speed -    
Visibility 6 miles    
Events Fog    
Averages and records for this station are not official NWS values.
T = Trace of Precipitation, MM = Missing Value Source: NWS Daily Summary

Daily Weather History Graph

Daily Weather History Graph

Search for Another Location

Airport or City:

Trip Planner

Search our weather history database for the weather conditions in past years. The results will help you decide how hot, cold, wet, or windy it might be!

Date:

Astronomy

Aug. 09, 2013 Rise Set
Actual Time 6:04 AM CDT 7:31 PM CDT
Civil Twilight 5:38 AM CDT 7:57 PM CDT
Nautical Twilight 5:08 AM CDT 8:27 PM CDT
Astronomical Twilight 4:35 AM CDT 9:00 PM CDT
Moon 8:35 AM CDT (8/9) 8:57 PM CDT (8/9)
Length of Visible Light 14h 18m
Length of Day
13h 26m
Waxing Crescent, 8% of the Moon is Illuminated
Aug 9
Waxing Crescent
Aug 14
First Quarter
Aug 20
Full
Aug 28
Last Quarter
Sep 5
New

Hourly Weather History & Observations

Time (CDT) Temp. Heat Index Dew Point Humidity Pressure Visibility Wind Dir Wind Speed Gust Speed Precip Events Conditions
2:58 AM 74.7 °F - 74.1 °F 98% 30.00 in 10.0 mi ESE 3.5 mph - N/A   Clear
4:58 AM 73.6 °F - 73.2 °F 99% 30.01 in 9.0 mi NE 4.6 mph - N/A   Clear
5:13 AM 73.4 °F - 73.4 °F 100% 30.02 in 9.0 mi NE 3.5 mph - N/A   Mostly Cloudy
5:38 AM 73.4 °F - 73.4 °F 100% 30.02 in 2.0 mi NNE 3.5 mph - N/A   Overcast
5:43 AM 73.4 °F - 73.4 °F 100% 30.02 in 1.5 mi NNE 3.5 mph - N/A   Overcast
6:03 AM 73.4 °F - 73.4 °F 100% 30.02 in 0.5 mi NE 4.6 mph - N/A Fog Fog
6:18 AM 73.4 °F - 73.4 °F 100% 30.03 in 0.5 mi NE 4.6 mph - N/A Fog Fog
6:23 AM 73.4 °F - 73.4 °F 100% 30.03 in 0.2 mi NE 4.6 mph - N/A Fog Fog
6:48 AM 73.4 °F - 73.4 °F 100% 30.04 in 0.2 mi ENE 4.6 mph - N/A Fog Fog
6:58 AM 73.8 °F - 73.8 °F 100% 30.04 in 0.2 mi ENE 5.8 mph - N/A Fog Fog
7:38 AM 75.2 °F - 75.2 °F 100% 30.06 in 0.2 mi ESE 6.9 mph - N/A Fog Fog
7:43 AM 75.2 °F - 75.2 °F 100% 30.06 in 0.2 mi East 4.6 mph - N/A Fog Fog
7:48 AM 75.2 °F - 75.2 °F 100% 30.06 in 0.5 mi East 3.5 mph - N/A Fog Fog
7:58 AM 75.6 °F - 75.6 °F 100% 30.06 in 0.5 mi ESE 4.6 mph - N/A Fog Fog
8:03 AM 75.2 °F - 75.2 °F 100% 30.06 in 0.5 mi ESE 4.6 mph - N/A Fog Fog
8:08 AM 75.2 °F - 75.2 °F 100% 30.06 in 0.8 mi East 3.5 mph - N/A   Mist
8:13 AM 77.0 °F - 77.0 °F 100% 30.06 in 1.0 mi East 4.6 mph - N/A   Mist
8:18 AM 77.0 °F - 77.0 °F 100% 30.07 in 1.2 mi ESE 4.6 mph - N/A   Overcast
8:23 AM 77.0 °F - 77.0 °F 100% 30.07 in 1.5 mi ESE 4.6 mph - N/A   Overcast
8:33 AM 77.0 °F - 77.0 °F 100% 30.07 in 3.0 mi Variable 4.6 mph - N/A   Overcast
8:48 AM 77.0 °F - 77.0 °F 100% 30.07 in 9.0 mi ESE 4.6 mph - N/A   Overcast
8:58 AM 77.9 °F - 77.9 °F 100% 30.07 in 10.0 mi Variable 2.3 mph - N/A   Overcast
9:20 AM 80.6 °F 88.1 °F 78.8 °F 94% 30.08 in 10.0 mi East 4.6 mph - N/A   Mostly Cloudy
9:30 AM 80.6 °F 88.1 °F 78.8 °F 94% 30.07 in 10.0 mi ESE 5.8 mph - N/A   Scattered Clouds
9:35 AM 82.4 °F 90.9 °F 77.0 °F 84% 30.08 in 10.0 mi East 5.8 mph - N/A   Mostly Cloudy
9:37 AM 82.4 °F 90.9 °F 77.0 °F 84% 30.07 in 10.0 mi ESE 5.8 mph - N/A   Scattered Clouds
9:55 AM 84.2 °F 94.1 °F 77.0 °F 79% 30.08 in 10.0 mi ESE 4.6 mph - N/A   Scattered Clouds
10:58 AM 86.7 °F 96.4 °F 75.4 °F 69% 30.08 in 10.0 mi SSE 5.8 mph - N/A   Scattered Clouds
11:58 AM 88.9 °F 98.6 °F 75.0 °F 63% 30.07 in 10.0 mi South 4.6 mph - N/A   Partly Cloudy
12:58 PM 90.1 °F 99.4 °F 73.9 °F 59% 30.05 in 10.0 mi Variable 3.5 mph - N/A   Scattered Clouds
1:58 PM 91.4 °F 100.1 °F 73.4 °F 55% 30.02 in 10.0 mi ESE 8.1 mph - N/A   Clear
2:58 PM 93.0 °F 102.6 °F 73.4 °F 53% 30.00 in 10.0 mi ESE 3.5 mph - N/A   Partly Cloudy
3:58 PM 93.4 °F 103.4 °F 73.9 °F 53% 29.99 in 10.0 mi ESE 8.1 mph - N/A   Partly Cloudy
4:58 PM 89.8 °F 100.3 °F 75.0 °F 62% 29.99 in 10.0 mi South 8.1 mph - N/A   Clear
5:58 PM 86.0 °F 94.6 °F 74.8 °F 69% 30.01 in 10.0 mi West 8.1 mph - N/A   Clear
6:58 PM 82.0 °F 88.6 °F 74.8 °F 79% 30.03 in 10.0 mi West 5.8 mph - N/A   Clear
7:58 PM 80.8 °F 86.5 °F 75.2 °F 83% 30.05 in 10.0 mi NW 2.3 mph - N/A   Mostly Cloudy
8:58 PM 77.9 °F - 75.2 °F 91% 30.07 in 10.0 mi Calm Calm - N/A   Clear
9:58 PM 77.2 °F - 75.2 °F 94% 30.08 in 10.0 mi WNW 3.5 mph - N/A   Clear
10:58 PM 76.5 °F - 74.7 °F 94% 30.09 in 10.0 mi NNE 2.3 mph - N/A   Clear
11:58 PM 75.6 °F - 74.1 °F 95% 30.08 in 10.0 mi NE 2.3 mph - N/A   Clear